Jackson, MN

12:51 AM CST on January 19, 2018 (GMT -0600)
Jackson Municipal

Weather History for KMJQ - October, 2011

Change the Weather History Date:

Sunday, October 23, 2011

  Actual Average Record
Temperature  
Mean Temperature 56 °F -  
Max Temperature 68 °F 53 °F 73 °F (2007)
Min Temperature 42 °F 35 °F 21 °F (2002)
Degree Days  
Heating Degree Days 9    
Growing Degree Days 6 (Base 50)    
Moisture  
Dew Point 40 °F    
Average Humidity 67    
Maximum Humidity 87    
Minimum Humidity 35    
Precipitation  
Precipitation 0.00 in - - ()
Sea Level Pressure  
Sea Level Pressure 29.89 in    
Wind  
Wind Speed 10 mph (West)    
Max Wind Speed 26 mph    
Max Gust Speed 32 mph    
Visibility 10 miles    
Events Rain    
Averages and records for this station are not official NWS values.
T = Trace of Precipitation, MM = Missing Value Source: NWS Daily Summary

Daily Weather History Graph

Daily Weather History Graph

Search for Another Location

Airport or City:

Trip Planner

Search our weather history database for the weather conditions in past years. The results will help you decide how hot, cold, wet, or windy it might be!

Date:

Astronomy

Oct. 23, 2011 Rise Set
Actual Time 7:43 AM CDT 6:24 PM CDT
Civil Twilight 7:14 AM CDT 6:53 PM CDT
Nautical Twilight 6:41 AM CDT 7:26 PM CDT
Astronomical Twilight 6:07 AM CDT 7:59 PM CDT
Moon 3:45 AM CDT (10/23) 4:20 PM CDT (10/23)
Length of Visible Light 11h 38m
Length of Day
10h 40m
Waning Crescent, 14% of the Moon is Illuminated
Oct 23
Waning Crescent
Oct 26
New
Nov 2
First Quarter
Nov 10
Full
Nov 18
Last Quarter

Hourly Weather History & Observations

Time (CDT) Temp. Windchill Dew Point Humidity Pressure Visibility Wind Dir Wind Speed Gust Speed Precip Events Conditions
12:12 AM 44.6 °F 41.4 °F 37.4 °F 76% 29.97 in 10.0 mi SSW 5.8 mph - N/A   Clear
12:33 AM 44.6 °F 40.7 °F 39.2 °F 81% 29.97 in 10.0 mi SSW 6.9 mph - N/A   Clear
12:53 AM 46.4 °F 42.9 °F 39.2 °F 76% 29.96 in 10.0 mi SSW 6.9 mph - N/A   Clear
1:13 AM 46.4 °F 42.9 °F 39.2 °F 76% 29.95 in 10.0 mi SSW 6.9 mph - N/A   Scattered Clouds
1:33 AM 46.4 °F 41.9 °F 37.4 °F 71% 29.97 in 10.0 mi West 9.2 mph 24.2 mph N/A   Scattered Clouds
1:53 AM 48.2 °F - 39.2 °F 71% 29.97 in 10.0 mi WSW 8.1 mph - N/A   Light Drizzle
2:13 AM 46.4 °F 44.3 °F 39.2 °F 76% 29.95 in 10.0 mi SW 4.6 mph - N/A Rain Light Rain
2:33 AM 46.4 °F 42.9 °F 41.0 °F 81% 29.95 in 10.0 mi SSW 6.9 mph - N/A   Mostly Cloudy
2:53 AM 46.4 °F 41.9 °F 41.0 °F 81% 29.93 in 10.0 mi South 9.2 mph - N/A   Scattered Clouds
3:13 AM 46.4 °F 42.4 °F 41.0 °F 81% 29.93 in 10.0 mi SSW 8.1 mph - N/A   Scattered Clouds
3:33 AM 44.6 °F 39.7 °F 39.2 °F 81% 29.92 in 10.0 mi SSW 9.2 mph - N/A   Scattered Clouds
3:53 AM 46.4 °F 42.4 °F 41.0 °F 81% 29.92 in 10.0 mi SSW 8.1 mph - N/A   Scattered Clouds
4:13 AM 46.4 °F 41.5 °F 41.0 °F 81% 29.91 in 10.0 mi SSW 10.4 mph - N/A   Scattered Clouds
4:33 AM 46.4 °F 40.1 °F 42.8 °F 87% 29.91 in 10.0 mi SW 15.0 mph - N/A   Scattered Clouds
4:53 AM 46.4 °F 40.4 °F 42.8 °F 87% 29.90 in 10.0 mi SW 13.8 mph - N/A   Clear
5:13 AM 48.2 °F - 42.8 °F 82% 29.89 in 10.0 mi SSW 15.0 mph - N/A   Clear
5:33 AM 48.2 °F - 42.8 °F 82% 29.89 in 10.0 mi SW 15.0 mph - N/A   Clear
5:53 AM 46.4 °F 41.1 °F 42.8 °F 87% 29.89 in 10.0 mi SW 11.5 mph - N/A   Clear
6:12 AM 46.4 °F 40.7 °F 41.0 °F 81% 29.89 in 10.0 mi SW 12.7 mph - N/A   Clear
6:33 AM 44.6 °F 39.2 °F 41.0 °F 87% 29.89 in 10.0 mi SW 10.4 mph - N/A   Clear
6:53 AM 44.6 °F 38.8 °F 41.0 °F 87% 29.89 in 10.0 mi SW 11.5 mph - N/A   Clear
7:12 AM 44.6 °F 38.8 °F 41.0 °F 87% 29.89 in 10.0 mi SSW 11.5 mph - N/A   Clear
7:33 AM 44.6 °F 39.2 °F 41.0 °F 87% 29.89 in 10.0 mi SW 10.4 mph - N/A   Clear
7:53 AM 44.6 °F 38.8 °F 41.0 °F 87% 29.88 in 10.0 mi SW 11.5 mph - N/A   Clear
8:13 AM 44.6 °F 38.8 °F 41.0 °F 87% 29.89 in 10.0 mi SW 11.5 mph - N/A   Clear
8:33 AM 44.6 °F 38.8 °F 41.0 °F 87% 29.88 in 10.0 mi SW 11.5 mph - N/A   Clear
9:13 AM 46.4 °F 41.9 °F 42.8 °F 87% 29.88 in 10.0 mi SW 9.2 mph - N/A   Clear
9:53 AM 50.0 °F - 42.8 °F 76% 29.89 in 10.0 mi WSW 12.7 mph - N/A   Clear
10:13 AM 50.0 °F - 42.8 °F 76% 29.88 in 10.0 mi WSW 9.2 mph - N/A   Clear
10:33 AM 51.8 °F - 42.8 °F 71% 29.88 in 10.0 mi WSW 10.4 mph - N/A   Clear
10:52 AM 55.4 °F - 42.8 °F 63% 29.86 in 10.0 mi West 8.1 mph - N/A   Clear
11:33 AM 59.0 °F - 42.8 °F 55% 29.86 in 10.0 mi West 13.8 mph - N/A   Clear
11:53 AM 59.0 °F - 42.8 °F 55% 29.86 in 10.0 mi WSW 11.5 mph 17.3 mph N/A Rain Light Rain
12:13 PM 57.2 °F - 44.6 °F 63% 29.86 in 10.0 mi SW 9.2 mph - N/A   Scattered Clouds
12:33 PM 57.2 °F - 44.6 °F 63% 29.86 in 10.0 mi WSW 11.5 mph - N/A   Light Drizzle
12:52 PM 60.8 °F - 42.8 °F 52% 29.84 in 10.0 mi WSW 13.8 mph - N/A   Scattered Clouds
1:13 PM 64.4 °F - 42.8 °F 45% 29.83 in 10.0 mi West 15.0 mph - N/A   Clear
1:33 PM 66.2 °F - 41.0 °F 40% 29.83 in 10.0 mi West 18.4 mph 25.3 mph N/A   Clear
1:53 PM 68.0 °F - 39.2 °F 35% 29.82 in 10.0 mi West 20.7 mph 25.3 mph N/A   Clear
2:13 PM 66.2 °F - 41.0 °F 40% 29.82 in 10.0 mi West 20.7 mph 25.3 mph N/A   Clear
2:32 PM 68.0 °F - 39.2 °F 35% 29.82 in 10.0 mi West 26.5 mph 32.2 mph N/A   Clear
2:53 PM 68.0 °F - 41.0 °F 37% 29.82 in 10.0 mi WNW 21.9 mph 28.8 mph N/A   Clear
3:13 PM 66.2 °F - 42.8 °F 43% 29.82 in 10.0 mi WNW 19.6 mph 31.1 mph N/A   Clear
3:32 PM 66.2 °F - 41.0 °F 40% 29.82 in 10.0 mi WNW 23.0 mph 32.2 mph N/A   Clear
3:53 PM 66.2 °F - 41.0 °F 40% 29.83 in 10.0 mi WNW 26.5 mph 32.2 mph N/A   Clear
4:13 PM 66.2 °F - 41.0 °F 40% 29.83 in 10.0 mi West 21.9 mph 31.1 mph N/A   Clear
4:32 PM 64.4 °F - 41.0 °F 42% 29.84 in 10.0 mi NNW 20.7 mph 29.9 mph N/A   Clear
4:53 PM 62.6 °F - 39.2 °F 42% 29.85 in 10.0 mi NNW 20.7 mph 28.8 mph N/A   Clear
5:13 PM 60.8 °F - 39.2 °F 45% 29.86 in 10.0 mi NNW 12.7 mph 28.8 mph N/A   Clear
5:32 PM 60.8 °F - 37.4 °F 42% 29.87 in 10.0 mi NNW 11.5 mph 25.3 mph N/A   Clear
5:53 PM 59.0 °F - 39.2 °F 48% 29.88 in 10.0 mi NNW 16.1 mph 20.7 mph N/A   Clear
6:13 PM 55.4 °F - 39.2 °F 54% 29.89 in 10.0 mi North 5.8 mph - N/A   Clear
6:32 PM 53.6 °F - 39.2 °F 58% 29.91 in 10.0 mi NNW 8.1 mph - N/A   Clear
6:53 PM 51.8 °F - 39.2 °F 62% 29.91 in 10.0 mi NNW 8.1 mph - N/A   Clear
7:13 PM 51.8 °F - 37.4 °F 58% 29.92 in 10.0 mi NNW 8.1 mph - N/A   Clear
7:32 PM 50.0 °F - 37.4 °F 62% 29.93 in 10.0 mi NNW 6.9 mph - N/A   Clear
7:53 PM 46.4 °F 43.5 °F 35.6 °F 66% 29.95 in 10.0 mi NNW 5.8 mph - N/A   Clear
8:12 PM 46.4 °F 43.5 °F 37.4 °F 71% 29.95 in 10.0 mi NNW 5.8 mph - N/A   Clear
8:33 PM 46.4 °F 43.5 °F 37.4 °F 71% 29.95 in 10.0 mi NNW 5.8 mph - N/A   Clear
8:53 PM 44.6 °F 40.2 °F 37.4 °F 76% 29.96 in 10.0 mi NNW 8.1 mph - N/A   Clear
9:13 PM 44.6 °F 40.2 °F 37.4 °F 76% 29.97 in 10.0 mi NW 8.1 mph - N/A   Clear
9:33 PM 42.8 °F 40.1 °F 35.6 °F 76% 29.97 in 10.0 mi NNW 4.6 mph - N/A   Clear
9:53 PM 42.8 °F 40.1 °F 35.6 °F 76% 29.98 in 10.0 mi NNW 4.6 mph - N/A   Clear
10:32 PM 39.2 °F 37.0 °F 33.8 °F 81% 29.98 in 10.0 mi NW 3.5 mph - N/A   Clear
10:53 PM 41.0 °F 39.0 °F 33.8 °F 76% 29.98 in 10.0 mi NW 3.5 mph - N/A   Clear
11:13 PM 39.2 °F 37.0 °F 35.6 °F 87% 29.99 in 10.0 mi NW 3.5 mph - N/A   Clear
11:32 PM 41.0 °F 39.0 °F 35.6 °F 81% - 10.0 mi NNW 3.5 mph - N/A   Clear
11:53 PM 41.0 °F - 35.6 °F 81% 29.98 in 10.0 mi Calm Calm - N/A   Clear